Location: B?dimalle
(17.1788°N, 80.5377°E)
Time: 11:37:57
(UTC+00:00)

Hubble Space Telescope - Visible Passes

Search period start: 04 October 2024 00:00
Search period end: 14 October 2024 00:00
Orbit: 504 x 508 km, 28.5° (Epoch: 03 October)

Date Brightness Start Highest point End Pass type
(mag) Time Alt. Az. Time Alt. Az. Time Alt. Az.
04 Oct 2.8 22:49:04 18° N 22:49:04 18° N 22:51:47 10° NE visible
05 Oct 3.2 22:29:13 16° NE 22:29:13 16° NE 22:30:44 10° ENE visible
06 Oct 1.3 00:04:49 10° NW 00:08:39 52° NNE 00:12:29 10° E visible
06 Oct 3.9 22:09:23 11° ENE 22:09:23 11° ENE 22:09:38 10° ENE visible
06 Oct 1.0 23:44:03 13° WNW 23:47:24 59° NNE 23:51:17 10° ESE visible
07 Oct 0.8 23:24:14 28° NW 23:26:07 68° NNE 23:30:01 10° ESE visible
08 Oct 0.5 23:04:25 69° NNW 23:04:47 78° NNE 23:08:43 10° ESE visible
09 Oct 3.5 14:16:07 10° SSW 14:16:22 11° SSW 14:16:22 11° SSW visible
09 Oct 1.7 22:44:36 43° ESE 22:44:36 43° ESE 22:47:21 10° ESE visible
10 Oct 2.4 13:54:32 10° SW 13:56:35 24° SSW 13:56:35 24° SSW visible
10 Oct 3.2 22:24:47 18° ESE 22:24:47 18° ESE 22:25:55 10° ESE visible
11 Oct 2.7 00:00:03 10° WSW 00:02:13 14° SSW 00:04:23 10° S visible
11 Oct 1.4 13:32:58 10° SW 13:36:37 36° SSE 13:36:43 36° SSE visible
11 Oct 2.8 23:39:38 11° SW 23:40:44 12° SSW 23:42:23 10° S visible
12 Oct 1.2 13:11:23 10° SW 13:15:07 42° SSE 13:16:47 27° E visible
12 Oct 3.1 23:19:45 10° SSW 23:19:45 10° SSW 23:19:56 10° SSW visible
13 Oct 1.0 12:49:47 10° SW 12:53:35 49° SSE 12:56:45 14° E visible
13 Oct 3.5 14:30:25 10° W 14:31:25 16° WNW 14:31:25 16° WNW visible
